Location: Newark
(39.6172°N, 96.8533°W)
Time: 01:58:36
(UTC+00:00)

Envisat - Pass Details

Date: 03 February 2020
Orbit: 764 x 766 km, 98.1° (Epoch: 21 February)

Event Time Altitude Azimuth Distance (km) Brightness Sun altitude
Rises 12:19:38 0° 24° (NNE) 3,238 6.4 -14.6°
Reaches altitude 10° 12:22:14 10° 35° (NE) 2,307 5.8 -14.1°
Maximum altitude 12:26:40 30° 96° (E) 1,361 5.2 -13.2°
Drops below altitude 10° 12:31:03 10° 156° (SSE) 2,293 6.0 -12.4°
Sets 12:33:36 0° 167° (SSE) 3,214 6.6 -11.9°
